Year,Month,Day,Hour,Minute,Value (Times are PST for temperature in C)
2022,03,29,00,00,7.70
2022,03,29,00,01,7.70
2022,03,29,00,02,7.70
2022,03,29,00,03,7.70
2022,03,29,00,04,7.70
2022,03,29,00,05,7.60
2022,03,29,00,06,7.60
2022,03,29,00,07,7.60
2022,03,29,00,08,7.60
2022,03,29,00,09,7.60
2022,03,29,00,10,7.60
2022,03,29,00,11,7.60
2022,03,29,00,12,7.50
2022,03,29,00,13,7.50
2022,03,29,00,14,7.50
2022,03,29,00,15,7.50
2022,03,29,00,16,7.40
2022,03,29,00,17,7.40
2022,03,29,00,18,7.40
2022,03,29,00,19,7.40
2022,03,29,00,20,7.40
2022,03,29,00,21,7.40
2022,03,29,00,22,7.30
2022,03,29,00,23,7.30
2022,03,29,00,24,7.30
2022,03,29,00,25,7.30
2022,03,29,00,26,7.30
2022,03,29,00,27,7.30
2022,03,29,00,28,7.30
2022,03,29,00,29,7.30
2022,03,29,00,30,7.20
2022,03,29,00,31,7.20
2022,03,29,00,32,7.20
2022,03,29,00,33,7.20
2022,03,29,00,34,7.20
2022,03,29,00,35,7.20
2022,03,29,00,36,7.20
2022,03,29,00,37,7.20
2022,03,29,00,38,7.20
2022,03,29,00,39,7.10
2022,03,29,00,40,7.10
2022,03,29,00,41,7.10
2022,03,29,00,42,7.10
2022,03,29,00,43,7.20
2022,03,29,00,44,7.20
2022,03,29,00,45,7.20
2022,03,29,00,46,7.20
2022,03,29,00,47,7.20
2022,03,29,00,48,7.20
2022,03,29,00,49,7.30
2022,03,29,00,50,7.30
2022,03,29,00,51,7.30
2022,03,29,00,52,7.30
2022,03,29,00,53,7.40
2022,03,29,00,54,7.40
2022,03,29,00,55,7.40
2022,03,29,00,56,7.30
2022,03,29,00,57,7.30
2022,03,29,00,58,7.30
2022,03,29,00,59,7.30
2022,03,29,01,00,7.20
2022,03,29,01,01,7.10
2022,03,29,01,02,7.00
2022,03,29,01,03,7.00
2022,03,29,01,04,6.90
2022,03,29,01,05,6.80
2022,03,29,01,06,6.70
2022,03,29,01,07,6.70
2022,03,29,01,08,6.60
2022,03,29,01,09,6.50
2022,03,29,01,10,6.50
2022,03,29,01,11,6.40
2022,03,29,01,12,6.40
2022,03,29,01,13,6.40
2022,03,29,01,14,6.30
2022,03,29,01,15,6.30
2022,03,29,01,16,6.30
2022,03,29,01,17,6.30
2022,03,29,01,18,6.30
2022,03,29,01,19,6.30
2022,03,29,01,20,6.20
2022,03,29,01,21,6.20
2022,03,29,01,22,6.20
2022,03,29,01,23,6.20
2022,03,29,01,24,6.20
2022,03,29,01,25,6.10
2022,03,29,01,26,6.10
2022,03,29,01,27,6.10
2022,03,29,01,28,6.10
2022,03,29,01,29,6.10
2022,03,29,01,30,6.10
2022,03,29,01,31,6.10
2022,03,29,01,32,6.10
2022,03,29,01,33,6.10
2022,03,29,01,34,6.10
2022,03,29,01,35,6.10
2022,03,29,01,36,6.00
2022,03,29,01,37,6.00
2022,03,29,01,38,6.00
2022,03,29,01,39,6.00
2022,03,29,01,40,5.90
2022,03,29,01,41,5.90
2022,03,29,01,42,5.90
2022,03,29,01,43,5.90
2022,03,29,01,44,5.80
2022,03,29,01,45,5.80
2022,03,29,01,46,5.70
2022,03,29,01,47,5.70
2022,03,29,01,48,5.70
2022,03,29,01,49,5.70
2022,03,29,01,50,5.60
2022,03,29,01,51,5.60
2022,03,29,01,52,5.60
2022,03,29,01,53,5.60
2022,03,29,01,54,5.50
2022,03,29,01,55,5.50
2022,03,29,01,56,5.40
2022,03,29,01,57,5.40
2022,03,29,01,58,5.50
2022,03,29,01,59,5.50
2022,03,29,02,00,5.50
2022,03,29,02,01,5.60
2022,03,29,02,02,5.60
2022,03,29,02,03,5.50
2022,03,29,02,04,5.50
2022,03,29,02,05,5.40
2022,03,29,02,06,5.40
2022,03,29,02,07,5.40
2022,03,29,02,08,5.40
2022,03,29,02,09,5.40
2022,03,29,02,10,5.40
2022,03,29,02,11,5.40
2022,03,29,02,12,5.40
2022,03,29,02,13,5.40
2022,03,29,02,14,5.40
2022,03,29,02,15,5.40
2022,03,29,02,16,5.40
2022,03,29,02,17,5.40
2022,03,29,02,18,5.40
2022,03,29,02,19,5.40
2022,03,29,02,20,5.40
2022,03,29,02,21,5.30
2022,03,29,02,22,5.30
2022,03,29,02,23,5.30
2022,03,29,02,24,5.30
2022,03,29,02,25,5.20
2022,03,29,02,26,5.20
2022,03,29,02,27,5.20
2022,03,29,02,28,5.20
2022,03,29,02,29,5.20
2022,03,29,02,30,5.20
2022,03,29,02,31,5.20
2022,03,29,02,32,5.20
2022,03,29,02,33,5.20
2022,03,29,02,34,5.20
2022,03,29,02,35,5.20
2022,03,29,02,36,5.20
2022,03,29,02,37,5.20
2022,03,29,02,38,5.20
2022,03,29,02,39,5.10
2022,03,29,02,40,5.10
2022,03,29,02,41,5.10
2022,03,29,02,42,5.10
2022,03,29,02,43,5.10
2022,03,29,02,44,5.00
2022,03,29,02,45,5.00
2022,03,29,02,46,5.00
2022,03,29,02,47,5.10
2022,03,29,02,48,5.10
2022,03,29,02,49,5.10
2022,03,29,02,50,5.10
2022,03,29,02,51,5.10
2022,03,29,02,52,5.20
2022,03,29,02,53,5.20
2022,03,29,02,54,5.10
2022,03,29,02,55,5.10
2022,03,29,02,56,5.10
2022,03,29,02,57,5.10
2022,03,29,02,58,5.10
2022,03,29,02,59,5.10
2022,03,29,03,00,5.00
2022,03,29,03,01,5.10
2022,03,29,03,02,5.10
2022,03,29,03,03,5.10
2022,03,29,03,04,5.00
2022,03,29,03,05,5.10
2022,03,29,03,06,5.00
2022,03,29,03,07,5.00
2022,03,29,03,08,5.00
2022,03,29,03,09,5.00
2022,03,29,03,10,5.00
2022,03,29,03,11,5.00
2022,03,29,03,12,5.00
2022,03,29,03,13,4.90
2022,03,29,03,14,4.90
2022,03,29,03,15,4.90
2022,03,29,03,16,4.80
2022,03,29,03,17,4.80
2022,03,29,03,18,4.80
2022,03,29,03,19,4.80
2022,03,29,03,20,4.80
2022,03,29,03,21,4.80
2022,03,29,03,22,4.80
2022,03,29,03,23,4.80
2022,03,29,03,24,4.80
2022,03,29,03,25,4.80
2022,03,29,03,26,4.70
2022,03,29,03,27,4.70
2022,03,29,03,28,4.70
2022,03,29,03,29,4.70
2022,03,29,03,30,4.70
2022,03,29,03,31,4.70
2022,03,29,03,32,4.70
2022,03,29,03,33,4.70
2022,03,29,03,34,4.70
2022,03,29,03,35,4.60
2022,03,29,03,36,4.60
2022,03,29,03,37,4.60
2022,03,29,03,38,4.60
2022,03,29,03,39,4.60
2022,03,29,03,40,4.60
2022,03,29,03,41,4.60
2022,03,29,03,42,4.60
2022,03,29,03,43,4.60
2022,03,29,03,44,4.60
2022,03,29,03,45,4.60
2022,03,29,03,46,4.60
2022,03,29,03,47,4.60
2022,03,29,03,48,4.60
2022,03,29,03,49,4.60
2022,03,29,03,50,4.60
2022,03,29,03,51,4.60
2022,03,29,03,52,4.60
2022,03,29,03,53,4.60
2022,03,29,03,54,4.60
2022,03,29,03,55,4.60
2022,03,29,03,56,4.60
2022,03,29,03,57,4.50
2022,03,29,03,58,4.50
2022,03,29,03,59,4.50
2022,03,29,04,00,4.50
2022,03,29,04,01,4.50
2022,03,29,04,02,4.50
2022,03,29,04,03,4.50
2022,03,29,04,04,4.50
2022,03,29,04,05,4.50
2022,03,29,04,06,4.50
2022,03,29,04,07,4.50
2022,03,29,04,08,4.50
2022,03,29,04,09,4.50
2022,03,29,04,10,4.50
2022,03,29,04,11,4.50
2022,03,29,04,12,4.50
2022,03,29,04,13,4.50
2022,03,29,04,14,4.40
2022,03,29,04,15,4.40
2022,03,29,04,16,4.40
2022,03,29,04,17,4.40
2022,03,29,04,18,4.40
2022,03,29,04,19,4.40
2022,03,29,04,20,4.40
2022,03,29,04,21,4.30
2022,03,29,04,22,4.30
2022,03,29,04,23,4.30
2022,03,29,04,24,4.30
2022,03,29,04,25,4.30
2022,03,29,04,26,4.20
2022,03,29,04,27,4.20
2022,03,29,04,28,4.20
2022,03,29,04,29,4.20
2022,03,29,04,30,4.20
2022,03,29,04,31,4.20
2022,03,29,04,32,4.20
2022,03,29,04,33,4.20
2022,03,29,04,34,4.20
2022,03,29,04,35,4.20
2022,03,29,04,36,4.20
2022,03,29,04,37,4.30
2022,03,29,04,38,4.30
2022,03,29,04,39,4.30
2022,03,29,04,40,4.30
2022,03,29,04,41,4.20
2022,03,29,04,42,4.20
2022,03,29,04,43,4.20
2022,03,29,04,44,4.20
2022,03,29,04,45,4.20
2022,03,29,04,46,4.20
2022,03,29,04,47,4.20
2022,03,29,04,48,4.20
2022,03,29,04,49,4.30
2022,03,29,04,50,4.40
2022,03,29,04,51,4.40
2022,03,29,04,52,4.50
2022,03,29,04,53,4.60
2022,03,29,04,54,4.60
2022,03,29,04,55,4.70
2022,03,29,04,56,4.60
2022,03,29,04,57,4.60
2022,03,29,04,58,4.60
2022,03,29,04,59,4.60
2022,03,29,05,00,4.50
2022,03,29,05,01,4.50
2022,03,29,05,02,4.40
2022,03,29,05,03,4.40
2022,03,29,05,04,4.40
2022,03,29,05,05,4.40
2022,03,29,05,06,4.40
2022,03,29,05,07,4.40
2022,03,29,05,08,4.30
2022,03,29,05,09,4.30
2022,03,29,05,10,4.30
2022,03,29,05,11,4.30
2022,03,29,05,12,4.30
2022,03,29,05,13,4.20
2022,03,29,05,14,4.20
2022,03,29,05,15,4.20
2022,03,29,05,16,4.20
2022,03,29,05,17,4.20
2022,03,29,05,18,4.20
2022,03,29,05,19,4.20
2022,03,29,05,20,4.20
2022,03,29,05,21,4.20
2022,03,29,05,22,4.20
2022,03,29,05,23,4.30
2022,03,29,05,24,4.30
2022,03,29,05,25,4.30
2022,03,29,05,26,4.20
2022,03,29,05,27,4.20
2022,03,29,05,28,4.20
2022,03,29,05,29,4.20
2022,03,29,05,30,4.20
2022,03,29,05,31,4.20
2022,03,29,05,32,4.20
2022,03,29,05,33,4.20
2022,03,29,05,34,4.20
2022,03,29,05,35,4.20
2022,03,29,05,36,4.20
2022,03,29,05,37,4.20
2022,03,29,05,38,4.20
2022,03,29,05,39,4.10
2022,03,29,05,40,4.10
2022,03,29,05,41,4.10
2022,03,29,05,42,4.10
2022,03,29,05,43,4.10
2022,03,29,05,44,4.10
2022,03,29,05,45,4.10
2022,03,29,05,46,4.10
2022,03,29,05,47,4.10
2022,03,29,05,48,4.10
2022,03,29,05,49,4.10
2022,03,29,05,50,4.10
2022,03,29,05,51,4.10
2022,03,29,05,52,4.10
2022,03,29,05,53,4.10
2022,03,29,05,54,4.10
2022,03,29,05,55,4.20
2022,03,29,05,56,4.20
2022,03,29,05,57,4.20
2022,03,29,05,58,4.20
2022,03,29,05,59,4.20
2022,03,29,06,00,4.20
2022,03,29,06,01,4.20
2022,03,29,06,02,4.20
2022,03,29,06,03,4.20
2022,03,29,06,04,4.20
2022,03,29,06,05,4.30
2022,03,29,06,06,4.30
2022,03,29,06,07,4.30
2022,03,29,06,08,4.30
2022,03,29,06,09,4.30
2022,03,29,06,10,4.40
2022,03,29,06,11,4.40
2022,03,29,06,12,4.40
2022,03,29,06,13,4.40
2022,03,29,06,14,4.40
2022,03,29,06,15,4.30
2022,03,29,06,16,4.30
2022,03,29,06,17,4.30
2022,03,29,06,18,4.30
2022,03,29,06,19,4.30
2022,03,29,06,20,4.30
2022,03,29,06,21,4.30
2022,03,29,06,22,4.30
2022,03,29,06,23,4.30
2022,03,29,06,24,4.30
2022,03,29,06,25,4.30
2022,03,29,06,26,4.30
2022,03,29,06,27,4.30
2022,03,29,06,28,4.30
2022,03,29,06,29,4.30
2022,03,29,06,30,4.30
2022,03,29,06,31,4.30
2022,03,29,06,32,4.30
2022,03,29,06,33,4.20
2022,03,29,06,34,4.20
2022,03,29,06,35,4.20
2022,03,29,06,36,4.20
2022,03,29,06,37,4.20
2022,03,29,06,38,4.20
2022,03,29,06,39,4.20
2022,03,29,06,40,4.20
2022,03,29,06,41,4.20
2022,03,29,06,42,4.20
2022,03,29,06,43,4.20
2022,03,29,06,44,4.20
2022,03,29,06,45,4.20
2022,03,29,06,46,4.20
2022,03,29,06,47,4.20
2022,03,29,06,48,4.30
2022,03,29,06,49,4.30
2022,03,29,06,50,4.30
2022,03,29,06,51,4.40
2022,03,29,06,52,4.40
2022,03,29,06,53,4.40
2022,03,29,06,54,4.50
2022,03,29,06,55,4.50
2022,03,29,06,56,4.50
2022,03,29,06,57,4.60
2022,03,29,06,58,4.60
2022,03,29,06,59,4.60
2022,03,29,07,00,4.50
2022,03,29,07,01,4.50
2022,03,29,07,02,4.50
2022,03,29,07,03,4.60
2022,03,29,07,04,4.50
2022,03,29,07,05,4.50
2022,03,29,07,06,4.50
2022,03,29,07,07,4.50
2022,03,29,07,08,4.50
2022,03,29,07,09,4.50
2022,03,29,07,10,4.50
2022,03,29,07,11,4.60
2022,03,29,07,12,4.60
2022,03,29,07,13,4.60
2022,03,29,07,14,4.60
2022,03,29,07,15,4.60
2022,03,29,07,16,4.60
2022,03,29,07,17,4.60
2022,03,29,07,18,4.70
2022,03,29,07,19,4.70
2022,03,29,07,20,4.70
2022,03,29,07,21,4.70
2022,03,29,07,22,4.80
2022,03,29,07,23,4.80
2022,03,29,07,24,4.80
2022,03,29,07,25,4.80
2022,03,29,07,26,4.80
2022,03,29,07,27,4.80
2022,03,29,07,28,4.80
2022,03,29,07,29,4.80
2022,03,29,07,30,4.80
2022,03,29,07,31,4.80
2022,03,29,07,32,4.80
2022,03,29,07,33,4.80
2022,03,29,07,34,4.80
2022,03,29,07,35,4.80
2022,03,29,07,36,4.80
2022,03,29,07,37,4.90
2022,03,29,07,38,4.90
2022,03,29,07,39,4.90
2022,03,29,07,40,4.90
2022,03,29,07,41,5.00
2022,03,29,07,42,5.00
2022,03,29,07,43,5.00
2022,03,29,07,44,5.00
2022,03,29,07,45,5.10
2022,03,29,07,46,5.10
2022,03,29,07,47,5.10
2022,03,29,07,48,5.10
2022,03,29,07,49,5.10
2022,03,29,07,50,5.10
2022,03,29,07,51,5.20
2022,03,29,07,52,5.20
2022,03,29,07,53,5.30
2022,03,29,07,54,5.30
2022,03,29,07,55,5.40
2022,03,29,07,56,5.40
2022,03,29,07,57,5.50
2022,03,29,07,58,5.50
2022,03,29,07,59,5.60
2022,03,29,08,00,5.70
2022,03,29,08,01,5.70
2022,03,29,08,02,5.70
2022,03,29,08,03,5.80
2022,03,29,08,04,5.80
2022,03,29,08,05,5.80
2022,03,29,08,06,5.80
2022,03,29,08,07,5.90
2022,03,29,08,08,5.90
2022,03,29,08,09,6.00
2022,03,29,08,10,6.00
2022,03,29,08,11,6.10
2022,03,29,08,12,6.10
2022,03,29,08,13,6.20
2022,03,29,08,14,6.20
2022,03,29,08,15,6.20
2022,03,29,08,16,6.20
2022,03,29,08,17,6.30
2022,03,29,08,18,6.30
2022,03,29,08,19,6.30
2022,03,29,08,20,6.30
2022,03,29,08,21,6.30
2022,03,29,08,22,6.30
2022,03,29,08,23,6.40
2022,03,29,08,24,6.40
2022,03,29,08,25,6.40
2022,03,29,08,26,6.40
2022,03,29,08,27,6.50
2022,03,29,08,28,6.50
2022,03,29,08,29,6.50
2022,03,29,08,30,6.60
2022,03,29,08,31,6.60
2022,03,29,08,32,6.60
2022,03,29,08,33,6.60
2022,03,29,08,34,6.60
2022,03,29,08,35,6.70
2022,03,29,08,36,6.70
2022,03,29,08,37,6.70
2022,03,29,08,38,6.70
2022,03,29,08,39,6.70
2022,03,29,08,40,6.70
2022,03,29,08,41,6.80
2022,03,29,08,42,6.80
2022,03,29,08,43,6.80
2022,03,29,08,44,6.90
2022,03,29,08,45,6.90
2022,03,29,08,46,7.00
2022,03,29,08,47,7.10
2022,03,29,08,48,7.10
2022,03,29,08,49,7.20
2022,03,29,08,50,7.20
2022,03,29,08,51,7.20
2022,03,29,08,52,7.30
2022,03,29,08,53,7.30
2022,03,29,08,54,7.30
2022,03,29,08,55,7.30
2022,03,29,08,56,7.30
2022,03,29,08,57,7.40
2022,03,29,08,58,7.40
2022,03,29,08,59,7.40
2022,03,29,09,00,7.40
2022,03,29,09,01,7.50
2022,03,29,09,02,7.50
2022,03,29,09,03,7.60
2022,03,29,09,04,7.60
2022,03,29,09,05,7.60
2022,03,29,09,06,7.70
2022,03,29,09,07,7.70
2022,03,29,09,08,7.70
2022,03,29,09,09,7.80
2022,03,29,09,10,7.80
2022,03,29,09,11,7.80
2022,03,29,09,12,7.80
2022,03,29,09,13,7.90
2022,03,29,09,14,7.90
2022,03,29,09,15,7.90
2022,03,29,09,16,8.00
2022,03,29,09,17,8.00
2022,03,29,09,18,8.10
2022,03,29,09,19,8.10
2022,03,29,09,20,8.20
2022,03,29,09,21,8.20
2022,03,29,09,22,8.20
2022,03,29,09,23,8.20
2022,03,29,09,24,8.30
2022,03,29,09,25,8.30
2022,03,29,09,26,8.30
2022,03,29,09,27,8.30
2022,03,29,09,28,8.30
2022,03,29,09,29,8.40
2022,03,29,09,30,8.40
2022,03,29,09,31,8.40
2022,03,29,09,32,8.50
2022,03,29,09,33,8.50
2022,03,29,09,34,8.50
2022,03,29,09,35,8.60
2022,03,29,09,36,8.60
2022,03,29,09,37,8.60
2022,03,29,09,38,8.60
2022,03,29,09,39,8.60
2022,03,29,09,40,8.60
2022,03,29,09,41,8.60
2022,03,29,09,42,8.60
2022,03,29,09,43,8.60
2022,03,29,09,44,8.60
2022,03,29,09,45,8.60
2022,03,29,09,46,8.60
2022,03,29,09,47,8.60
2022,03,29,09,48,8.70
2022,03,29,09,49,8.70
2022,03,29,09,50,8.70
2022,03,29,09,51,8.70
2022,03,29,09,52,8.70
2022,03,29,09,53,8.70
2022,03,29,09,54,8.70
2022,03,29,09,55,8.70
2022,03,29,09,56,8.70
2022,03,29,09,57,8.70
2022,03,29,09,58,8.70
2022,03,29,09,59,8.70
2022,03,29,10,00,8.70
2022,03,29,10,01,8.80
2022,03,29,10,02,8.80
2022,03,29,10,03,8.80
2022,03,29,10,04,8.80
2022,03,29,10,05,8.80
2022,03,29,10,06,8.80
2022,03,29,10,07,8.80
2022,03,29,10,08,8.80
2022,03,29,10,09,8.80
2022,03,29,10,10,8.90
2022,03,29,10,11,8.90
2022,03,29,10,12,8.90
2022,03,29,10,13,9.00
2022,03,29,10,14,9.10
2022,03,29,10,15,9.10
2022,03,29,10,16,9.20
2022,03,29,10,17,9.20
2022,03,29,10,18,9.30
2022,03,29,10,19,9.30
2022,03,29,10,20,9.40
2022,03,29,10,21,9.40
2022,03,29,10,22,9.50
2022,03,29,10,23,9.60
2022,03,29,10,24,9.60
2022,03,29,10,25,9.70
2022,03,29,10,26,9.70
2022,03,29,10,27,9.80
2022,03,29,10,28,9.90
2022,03,29,10,29,9.90
2022,03,29,10,30,10.00
2022,03,29,10,31,10.10
2022,03,29,10,32,10.20
2022,03,29,10,33,10.20
2022,03,29,10,34,10.30
2022,03,29,10,35,10.40
2022,03,29,10,36,10.50
2022,03,29,10,37,10.60
2022,03,29,10,38,10.80
2022,03,29,10,39,10.80
2022,03,29,10,40,10.80
2022,03,29,10,41,10.90
2022,03,29,10,42,11.00
2022,03,29,10,43,11.10
2022,03,29,10,44,11.20
2022,03,29,10,45,11.20
2022,03,29,10,46,11.30
2022,03,29,10,47,11.30
2022,03,29,10,48,11.40
2022,03,29,10,49,11.50
2022,03,29,10,50,11.50
2022,03,29,10,51,11.60
2022,03,29,10,52,11.70
2022,03,29,10,53,11.80
2022,03,29,10,54,11.90
2022,03,29,10,55,11.90
2022,03,29,10,56,12.00
2022,03,29,10,57,12.10
2022,03,29,10,58,12.10
2022,03,29,10,59,12.20
2022,03,29,11,00,12.20
2022,03,29,11,01,12.30
2022,03,29,11,02,12.30
2022,03,29,11,03,12.40
2022,03,29,11,04,12.30
2022,03,29,11,05,12.30
2022,03,29,11,06,12.20
2022,03,29,11,07,12.10
2022,03,29,11,08,12.10
2022,03,29,11,09,12.00
2022,03,29,11,10,11.90
2022,03,29,11,11,11.80
2022,03,29,11,12,11.70
2022,03,29,11,13,11.80
2022,03,29,11,14,11.80
2022,03,29,11,15,11.80
2022,03,29,11,16,11.80
2022,03,29,11,17,11.80
2022,03,29,11,18,11.70
2022,03,29,11,19,11.60
2022,03,29,11,20,11.60
2022,03,29,11,21,11.60
2022,03,29,11,22,11.60
2022,03,29,11,23,11.60
2022,03,29,11,24,11.60
2022,03,29,11,25,11.60
2022,03,29,11,26,11.60
2022,03,29,11,27,11.60
2022,03,29,11,28,11.60
2022,03,29,11,29,11.60
2022,03,29,11,30,11.60
2022,03,29,11,31,11.60
2022,03,29,11,32,11.50
2022,03,29,11,33,11.50
2022,03,29,11,34,11.40
2022,03,29,11,35,11.30
2022,03,29,11,36,11.30
2022,03,29,11,37,11.30
2022,03,29,11,38,11.30
2022,03,29,11,39,11.40
2022,03,29,11,40,11.40
2022,03,29,11,41,11.40
2022,03,29,11,42,11.50
2022,03,29,11,43,11.50
2022,03,29,11,44,11.50
2022,03,29,11,45,11.50
2022,03,29,11,46,11.60
2022,03,29,11,47,11.60
2022,03,29,11,48,11.70
2022,03,29,11,49,11.70
2022,03,29,11,50,11.70
2022,03,29,11,51,11.70
2022,03,29,11,52,11.70
2022,03,29,11,53,11.70
2022,03,29,11,54,11.70
2022,03,29,11,55,11.70
2022,03,29,11,56,11.70
2022,03,29,11,57,11.70
2022,03,29,11,58,11.70
2022,03,29,11,59,11.80
2022,03,29,12,00,11.80
2022,03,29,12,01,11.70
2022,03,29,12,02,11.70
2022,03,29,12,03,11.70
2022,03,29,12,04,11.70
2022,03,29,12,05,11.70
2022,03,29,12,06,11.70
2022,03,29,12,07,11.80
2022,03,29,12,08,11.80
2022,03,29,12,09,11.70
2022,03,29,12,10,11.70
2022,03,29,12,11,11.80
2022,03,29,12,12,11.80
2022,03,29,12,13,11.90
2022,03,29,12,14,11.90
2022,03,29,12,15,11.90
2022,03,29,12,16,11.80
2022,03,29,12,17,11.80
2022,03,29,12,18,11.70
2022,03,29,12,19,11.70
2022,03,29,12,20,11.60
2022,03,29,12,21,11.60
2022,03,29,12,22,11.50
2022,03,29,12,23,11.50
2022,03,29,12,24,11.40
2022,03,29,12,25,11.40
2022,03,29,12,26,11.40
2022,03,29,12,27,11.30
2022,03,29,12,28,11.20
2022,03,29,12,29,11.10
2022,03,29,12,30,11.10
2022,03,29,12,31,11.10
2022,03,29,12,32,11.10
2022,03,29,12,33,11.10
2022,03,29,12,34,11.10
2022,03,29,12,35,11.10
2022,03,29,12,36,11.20
2022,03,29,12,37,11.30
2022,03,29,12,38,11.30
2022,03,29,12,39,11.30
2022,03,29,12,40,11.30
2022,03,29,12,41,11.30
2022,03,29,12,42,11.40
2022,03,29,12,43,11.40
2022,03,29,12,44,11.40
2022,03,29,12,45,11.50
2022,03,29,12,46,11.50
2022,03,29,12,47,11.60
2022,03,29,12,48,11.60
2022,03,29,12,49,11.60
2022,03,29,12,50,11.70
2022,03,29,12,51,11.70
2022,03,29,12,52,11.70
2022,03,29,12,53,11.70
2022,03,29,12,54,11.70
2022,03,29,12,55,11.70
2022,03,29,12,56,11.70
2022,03,29,12,57,11.70
2022,03,29,12,58,11.60
2022,03,29,12,59,11.70
2022,03,29,13,00,11.70
2022,03,29,13,01,11.80
2022,03,29,13,02,11.80
2022,03,29,13,03,11.90
2022,03,29,13,04,11.90
2022,03,29,13,05,11.90
2022,03,29,13,06,11.80
2022,03,29,13,07,11.70
2022,03,29,13,08,11.60
2022,03,29,13,09,11.60
2022,03,29,13,10,11.60
2022,03,29,13,11,11.60
2022,03,29,13,12,11.50
2022,03,29,13,13,11.40
2022,03,29,13,14,11.50
2022,03,29,13,15,11.50
2022,03,29,13,16,11.60
2022,03,29,13,17,11.60
2022,03,29,13,18,11.70
2022,03,29,13,19,11.70
2022,03,29,13,20,11.80
2022,03,29,13,21,11.80
2022,03,29,13,22,11.80
2022,03,29,13,23,11.80
2022,03,29,13,24,11.80
2022,03,29,13,25,11.90
2022,03,29,13,26,12.00
2022,03,29,13,27,12.10
2022,03,29,13,28,12.00
2022,03,29,13,29,12.00
2022,03,29,13,30,12.00
2022,03,29,13,31,12.00
2022,03,29,13,32,12.00
2022,03,29,13,33,12.10
2022,03,29,13,34,12.10
2022,03,29,13,35,12.10
2022,03,29,13,36,12.20
2022,03,29,13,37,12.20
2022,03,29,13,38,12.30
2022,03,29,13,39,12.40
2022,03,29,13,40,12.30
2022,03,29,13,41,12.20
2022,03,29,13,42,12.20
2022,03,29,13,43,12.20
2022,03,29,13,44,12.20
2022,03,29,13,45,12.20
2022,03,29,13,46,12.20
2022,03,29,13,47,12.20
2022,03,29,13,48,12.20
2022,03,29,13,49,12.20
2022,03,29,13,50,12.30
2022,03,29,13,51,12.30
2022,03,29,13,52,12.30
2022,03,29,13,53,12.40
2022,03,29,13,54,12.40
2022,03,29,13,55,12.30
2022,03,29,13,56,12.30
2022,03,29,13,57,12.20
2022,03,29,13,58,12.20
2022,03,29,13,59,12.20
2022,03,29,14,00,12.10
2022,03,29,14,01,12.10
2022,03,29,14,02,12.10
2022,03,29,14,03,12.10
2022,03,29,14,04,12.10
2022,03,29,14,05,12.10
2022,03,29,14,06,12.10
2022,03,29,14,07,12.00
2022,03,29,14,08,12.00
2022,03,29,14,09,12.00
2022,03,29,14,10,12.10
2022,03,29,14,11,12.10
2022,03,29,14,12,12.10
2022,03,29,14,13,12.00
2022,03,29,14,14,12.00
2022,03,29,14,15,12.00
2022,03,29,14,16,12.00
2022,03,29,14,17,12.00
2022,03,29,14,18,11.90
2022,03,29,14,19,11.90
2022,03,29,14,20,11.90
2022,03,29,14,21,11.90
2022,03,29,14,22,11.90
2022,03,29,14,23,11.90
2022,03,29,14,24,12.00
2022,03,29,14,25,12.00
2022,03,29,14,26,12.00
2022,03,29,14,27,12.00
2022,03,29,14,28,11.90
2022,03,29,14,29,11.80
2022,03,29,14,30,11.70
2022,03,29,14,31,11.50
2022,03,29,14,32,11.40
2022,03,29,14,33,11.30
2022,03,29,14,34,11.20
2022,03,29,14,35,11.10
2022,03,29,14,36,11.10
2022,03,29,14,37,11.10
2022,03,29,14,38,11.10
2022,03,29,14,39,11.10
2022,03,29,14,40,11.10
2022,03,29,14,41,11.10
2022,03,29,14,42,11.10
2022,03,29,14,43,11.10
2022,03,29,14,44,11.10
2022,03,29,14,45,11.10
2022,03,29,14,46,11.10
2022,03,29,14,47,11.10
2022,03,29,14,48,11.20
2022,03,29,14,49,11.30
2022,03,29,14,50,11.30
2022,03,29,14,51,11.40
2022,03,29,14,52,11.50
2022,03,29,14,53,11.50
2022,03,29,14,54,11.60
2022,03,29,14,55,11.80
2022,03,29,14,56,11.90
2022,03,29,14,57,12.00
2022,03,29,14,58,12.00
2022,03,29,14,59,12.00
2022,03,29,15,00,12.00
2022,03,29,15,01,12.00
2022,03,29,15,02,12.00
2022,03,29,15,03,12.00
2022,03,29,15,04,12.00
2022,03,29,15,05,11.90
2022,03,29,15,06,11.90
2022,03,29,15,07,11.80
2022,03,29,15,08,11.80
2022,03,29,15,09,11.80
2022,03,29,15,10,11.80
2022,03,29,15,11,11.70
2022,03,29,15,12,11.80
2022,03,29,15,13,11.80
2022,03,29,15,14,11.80
2022,03,29,15,15,11.80
2022,03,29,15,16,11.80
2022,03,29,15,17,11.90
2022,03,29,15,18,12.00
2022,03,29,15,19,12.00
2022,03,29,15,20,12.10
2022,03,29,15,21,12.10
2022,03,29,15,22,12.10
2022,03,29,15,23,12.10
2022,03,29,15,24,12.10
2022,03,29,15,25,12.10
2022,03,29,15,26,12.00
2022,03,29,15,27,12.00
2022,03,29,15,28,12.10
2022,03,29,15,29,12.10
2022,03,29,15,30,12.10
2022,03,29,15,31,12.10
2022,03,29,15,32,12.20
2022,03,29,15,33,12.20
2022,03,29,15,34,12.30
2022,03,29,15,35,12.30
2022,03,29,15,36,12.20
2022,03,29,15,37,12.20
2022,03,29,15,38,12.20
2022,03,29,15,39,12.20
2022,03,29,15,40,12.20
2022,03,29,15,41,12.30
2022,03,29,15,42,12.30
2022,03,29,15,43,12.30
2022,03,29,15,44,12.30
2022,03,29,15,45,12.40
2022,03,29,15,46,12.40
2022,03,29,15,47,12.40
2022,03,29,15,48,12.40
2022,03,29,15,49,12.40
2022,03,29,15,50,12.50
2022,03,29,15,51,12.50
2022,03,29,15,52,12.60
2022,03,29,15,53,12.70
2022,03,29,15,54,12.70
2022,03,29,15,55,12.70
2022,03,29,15,56,12.80
2022,03,29,15,57,12.80
2022,03,29,15,58,12.80
2022,03,29,15,59,12.80
2022,03,29,16,00,12.80
2022,03,29,16,01,12.90
2022,03,29,16,02,12.90
2022,03,29,16,03,12.90
2022,03,29,16,04,12.90
2022,03,29,16,05,12.90
2022,03,29,16,06,12.90
2022,03,29,16,07,12.90
2022,03,29,16,08,12.90
2022,03,29,16,09,12.90
2022,03,29,16,10,13.00
2022,03,29,16,11,13.00
2022,03,29,16,12,13.10
2022,03,29,16,13,13.10
2022,03,29,16,14,13.20
2022,03,29,16,15,13.20
2022,03,29,16,16,13.10
2022,03,29,16,17,13.10
2022,03,29,16,18,13.00
2022,03,29,16,19,13.00
2022,03,29,16,20,13.00
2022,03,29,16,21,13.00
2022,03,29,16,22,13.00
2022,03,29,16,23,13.00
2022,03,29,16,24,13.10
2022,03,29,16,25,13.10
2022,03,29,16,26,13.10
2022,03,29,16,27,13.20
2022,03,29,16,28,13.20
2022,03,29,16,29,13.20
2022,03,29,16,30,13.30
2022,03,29,16,31,13.30
2022,03,29,16,32,13.30
2022,03,29,16,33,13.30
2022,03,29,16,34,13.30
2022,03,29,16,35,13.30
2022,03,29,16,36,13.30
2022,03,29,16,37,13.30
2022,03,29,16,38,13.30
2022,03,29,16,39,13.30
2022,03,29,16,40,13.30
2022,03,29,16,41,13.30
2022,03,29,16,42,13.30
2022,03,29,16,43,13.30
2022,03,29,16,44,13.20
2022,03,29,16,45,13.20
2022,03,29,16,46,13.20
2022,03,29,16,47,13.20
2022,03,29,16,48,13.20
2022,03,29,16,49,13.30
2022,03,29,16,50,13.30
2022,03,29,16,51,13.40
2022,03,29,16,52,13.40
2022,03,29,16,53,13.40
2022,03,29,16,54,13.40
2022,03,29,16,55,13.40
2022,03,29,16,56,13.50
2022,03,29,16,57,13.50
2022,03,29,16,58,13.40
2022,03,29,16,59,13.40
2022,03,29,17,00,13.40
2022,03,29,17,01,13.40
2022,03,29,17,02,13.40
2022,03,29,17,03,13.50
2022,03,29,17,04,13.50
2022,03,29,17,05,13.60
2022,03,29,17,06,13.60
2022,03,29,17,07,13.60
2022,03,29,17,08,13.60
2022,03,29,17,09,13.60
2022,03,29,17,10,13.60
2022,03,29,17,11,13.60
2022,03,29,17,12,13.60
2022,03,29,17,13,13.60
2022,03,29,17,14,13.60
2022,03,29,17,15,13.60
2022,03,29,17,16,13.60
2022,03,29,17,17,13.70
2022,03,29,17,18,13.70
2022,03,29,17,19,13.80
2022,03,29,17,20,13.80
2022,03,29,17,21,13.80
2022,03,29,17,22,13.80
2022,03,29,17,23,13.80
2022,03,29,17,24,13.70
2022,03,29,17,25,13.70
2022,03,29,17,26,13.70
2022,03,29,17,27,13.80
2022,03,29,17,28,13.80
2022,03,29,17,29,13.80
2022,03,29,17,30,13.90
2022,03,29,17,31,13.90
2022,03,29,17,32,13.90
2022,03,29,17,33,13.90
2022,03,29,17,34,13.90
2022,03,29,17,35,13.90
2022,03,29,17,36,13.90
2022,03,29,17,37,13.90
2022,03,29,17,38,13.90
2022,03,29,17,39,13.90
2022,03,29,17,40,13.90
2022,03,29,17,41,13.90
2022,03,29,17,42,13.90
2022,03,29,17,43,13.90
2022,03,29,17,44,13.90
2022,03,29,17,45,13.90
2022,03,29,17,46,13.90